North Las Vegas, NV

7:16 AM PDT on July 24, 2016 (GMT -0700)
North Las Vegas

Weather History for KVGT - September, 2013

Change the Weather History Date:

Sunday, September 1, 2013

  Actual Average Record
Temperature  
Mean Temperature 83 °F -  
Max Temperature 93 °F 94 °F 113 °F (1958)
Min Temperature 75 °F 70 °F 49 °F (1957)
Cooling Degree Days 18    
Growing Degree Days 33 (Base 50)    
Moisture  
Dew Point 66 °F    
Average Humidity 58    
Maximum Humidity 79    
Minimum Humidity 39    
Precipitation  
Precipitation 0.00 in - - ()
Sea Level Pressure  
Sea Level Pressure 29.91 in    
Wind  
Wind Speed 4 mph (ESE)    
Max Wind Speed 8 mph    
Max Gust Speed -    
Visibility 10 miles    
Events      
Averages and records for this station are not official NWS values.
T = Trace of Precipitation, MM = Missing Value Source: NWS Daily Summary

Daily Weather History Graph

Daily Weather History Graph

Search for Another Location

Airport or City:

Trip Planner

Search our weather history database for the weather conditions in past years. The results will help you decide how hot, cold, wet, or windy it might be!

Date:

Astronomy

Sep. 01, 2013 Rise Set
Actual Time 6:12 AM PDT 7:08 PM PDT
Civil Twilight 5:46 AM PDT 7:34 PM PDT
Nautical Twilight 5:15 AM PDT 8:05 PM PDT
Astronomical Twilight 4:43 AM PDT 8:37 PM PDT
Moon 2:42 AM PDT (9/1) 4:44 PM PDT (9/1)
Length of Visible Light 13h 47m
Length of Day
12h 55m
Waning Crescent, 13% of the Moon is Illuminated
Sep 1
Waning Crescent
Sep 5
New
Sep 12
First Quarter
Sep 19
Full
Sep 26
Last Quarter

Hourly Weather History & Observations

Time (PDT) Temp. Heat Index Dew Point Humidity Pressure Visibility Wind Dir Wind Speed Gust Speed Precip Events Conditions
12:53 AM 77.0 °F - 69.1 °F 76% 29.94 in 10.0 mi SSE 5.8 mph - N/A   Partly Cloudy
1:53 AM 75.9 °F - 66.9 °F 74% 29.93 in 10.0 mi East 8.1 mph - N/A   Scattered Clouds
2:53 AM 75.0 °F - 68.0 °F 79% 29.92 in 10.0 mi ESE 3.5 mph - N/A   Clear
3:53 AM 75.9 °F - 64.9 °F 69% 29.93 in 10.0 mi Calm Calm - N/A   Mostly Cloudy
4:53 AM 75.9 °F - 66.9 °F 74% 29.92 in 10.0 mi Calm Calm - N/A   Partly Cloudy
5:53 AM 75.0 °F - 68.0 °F 79% 29.94 in 10.0 mi Calm Calm - N/A   Clear
6:53 AM 75.9 °F - 66.0 °F 71% 29.94 in 10.0 mi NE 3.5 mph - N/A   Clear
7:53 AM 75.9 °F - 66.9 °F 74% 29.96 in 10.0 mi ENE 3.5 mph - N/A   Clear
8:53 AM 77.0 °F - 68.0 °F 74% 29.96 in 10.0 mi Calm Calm - N/A   Clear
9:53 AM 80.1 °F 82.7 °F 68.0 °F 67% 29.97 in 10.0 mi Calm Calm - N/A   Clear
10:53 AM 82.0 °F 84.9 °F 68.0 °F 62% 29.96 in 10.0 mi SE 6.9 mph - N/A   Clear
11:53 AM 84.0 °F 86.5 °F 66.9 °F 56% 29.94 in 10.0 mi SSE 8.1 mph - N/A   Clear
12:53 PM 86.0 °F 88.2 °F 66.0 °F 51% 29.93 in 10.0 mi Variable 5.8 mph - N/A   Clear
1:53 PM 89.1 °F 91.3 °F 66.0 °F 46% 29.91 in 10.0 mi Calm Calm - N/A   Clear
2:53 PM 90.0 °F 91.7 °F 64.9 °F 43% 29.88 in 10.0 mi Calm Calm - N/A   Clear
3:53 PM 91.9 °F 94.1 °F 64.9 °F 41% 29.85 in 10.0 mi Calm Calm - N/A   Clear
4:53 PM 91.0 °F 93.0 °F 64.9 °F 42% 29.83 in 10.0 mi South 3.5 mph - N/A   Partly Cloudy
5:53 PM 91.9 °F 93.3 °F 64.0 °F 39% 29.82 in 10.0 mi East 6.9 mph - N/A   Scattered Clouds
6:53 PM 90.0 °F 91.7 °F 64.9 °F 43% 29.83 in 10.0 mi SE 8.1 mph - N/A   Clear
7:53 PM 88.0 °F 88.7 °F 63.0 °F 43% 29.86 in 10.0 mi North 8.1 mph - N/A   Clear
8:53 PM 87.1 °F 87.8 °F 63.0 °F 44% 29.88 in 10.0 mi NNE 5.8 mph - N/A   Clear
9:53 PM 84.9 °F 86.1 °F 64.0 °F 49% 29.88 in 10.0 mi East 5.8 mph - N/A   Clear
10:53 PM 84.9 °F 85.9 °F 63.0 °F 48% 29.88 in 10.0 mi Calm Calm - N/A   Clear
11:53 PM 84.0 °F 84.9 °F 63.0 °F 49% 29.88 in 10.0 mi East 3.5 mph - N/A   Clear